Location: *
(47.2969°N, 10.2930°E)
Time: 13:38:10
(UTC+00:00)

Terra - Pass Details

Date: 09 April 2020
Orbit: 701 x 703 km, 98.2° (Epoch: 26 May)

Event Time Altitude Azimuth Distance (km) Brightness Sun altitude
Exits shadow 22:08:27 26° 290° (WNW) 1,374 3.6 -32.4°
Drops below altitude 10° 22:11:27 10° 326° (NW) 2,182 5.2 -32.6°
Sets 22:14:00 0° 337° (NNW) 3,105 6.3 -32.8°
